Location: Old Broadwell Mill Observatory
(33.8015°N, 85.8137°W)
Time: 04:44:50
(UTC-05:00)

Daily predictions for brighter satellites

Satellite Brightness Start Highest point End
(mag) Time Altitude Azimuth Time Altitude Azimuth Time Altitude Azimuth
CZ-3B DEB 4.4 00:05:07 10° NW 00:40:18 87° SW 00:43:50 64° SSE
Cosmos 2227 Rocket 4.3 00:53:24 10° NNE 00:56:52 19° NE 00:56:52 19° NE
Cosmos 1943 Rocket 4.3 01:03:11 20° NW 01:03:11 20° NW 01:06:09 10° N
Cosmos 2297 Rocket 4.2 01:14:03 10° N 01:18:02 20° NE 01:18:02 20° NE
ATLAS 2AS CENTAUR R/B 4.0 01:17:01 10° NW 01:21:46 36° WNW 01:21:46 36° WNW
BREEZE-M DEB (TANK) 4.4 01:47:29 10° NW 01:52:46 84° NE 02:19:00 10° SE
BREEZE-M DEB (TANK) 4.3 01:49:10 10° NW 01:58:46 42° N 01:58:46 42° N
ATLAS CENTAUR R/B 3.7 02:03:04 28° NNE 02:03:04 28° NNE 02:05:27 10° NNE
SeaSat 1 4.0 02:11:47 31° N 02:11:47 31° N 02:14:28 10° NNW
Cosmos 1697 Rocket 3.5 02:21:51 47° NE 02:21:51 47° NE 02:25:54 10° NNE
Resurs 1-4 Rocket 4.2 02:20:23 10° NE 02:23:47 17° E 02:23:57 17° E
Cosmos 2034 Rocket 4.3 02:25:17 64° NNE 02:25:17 64° NNE 02:30:32 10° N
Cosmos 1980 Rocket 3.1 02:31:15 44° ENE 02:31:15 44° ENE 02:35:37 10° NNE
Cosmos 2227 Rocket 3.8 02:36:17 10° NNW 02:38:39 25° NW 02:38:39 25° NW
Cosmos 2322 Rocket 3.8 02:43:46 23° ESE 02:44:15 23° E 02:48:34 10° NE
Meteor 2-12 Rocket 4.5 02:45:57 73° ENE 02:45:57 73° ENE 02:51:38 10° N
NOSS 3-4 (A) 3.8 02:40:54 10° NNW 02:48:02 84° ENE 02:49:38 59° SE
NOSS 3-4 (C) 3.8 02:40:59 10° NNW 02:48:08 84° ENE 02:49:54 57° SE
SL-16 R/B 3.8 02:45:21 18° ESE 02:49:13 35° ENE 02:54:44 10° N
NPP 4.3 02:45:27 10° N 02:49:32 48° NNW 02:49:32 48° NNW
Cosmos 841 Rocket 4.0 02:56:06 54° N 02:56:06 54° N 03:00:15 10° NNE
Cosmos 1763 Rocket 4.2 02:59:24 46° NNW 02:59:24 46° NNW 03:03:20 10° N
Cosmos 2297 Rocket 3.6 02:57:03 10° NNW 02:59:47 27° NW 02:59:47 27° NW
Geosat 4.3 03:02:04 10° NNE 03:06:24 62° NNW 03:06:24 62° NNW
Cosmos 1634 Rocket 4.3 03:06:30 51° SE 03:07:46 62° E 03:13:58 10° NNE
DELTA 2 R/B (1) 3.9 03:12:49 54° ESE 03:12:49 54° ESE 03:17:36 10° ENE
CZ-3A R/B 4.2 03:07:23 38° WSW 03:12:56 65° NW 03:18:20 10° NNE
Cosmos 540 Rocket 3.6 03:16:37 64° ESE 03:16:44 64° ESE 03:21:51 10° NNE
ERS-2 4.2 03:14:41 10° N 03:16:20 24° NNW 03:16:20 24° NNW
SL-16 R/B 2.9 03:18:33 41° SE 03:19:40 46° ESE 03:25:04 10° NE
Aureole 1 Rocket 4.5 03:19:01 43° SSE 03:20:44 56° E 03:27:56 10° NNE
Milstar 3 Cent rocket 2.8 03:21:57 42° SE 03:21:57 42° SE 03:27:06 10° ESE
Cosmos 1092 Rocket 3.9 03:17:15 10° N 03:23:36 89° WSW 03:25:11 54° S
Cosmos 2360 4.0 03:23:34 75° WSW 03:23:53 78° WNW 03:29:38 10° NNE
CZ-3 R/B 4.2 03:05:11 33° SW 03:25:24 60° S 03:36:26 10° E
RESURS DK-1 4.2 03:22:03 10° N 03:25:42 29° ENE 03:29:19 10° SE
ARIANE 5 R/B 2.4 03:24:11 10° N 03:29:21 76° WNW 03:29:33 75° W
SME Rocket 4.1 03:29:37 45° S 03:31:41 85° WSW 03:40:09 10° NNW
Cosmos 1743 Rocket 4.0 03:28:07 10° N 03:32:24 57° E 03:33:03 51° ESE
Cosmos-2242 3.4 03:33:18 53° NNW 03:33:18 53° NNW 03:36:45 10° N
CZ-2D R/B 2.0 03:29:47 10° NNE 03:35:14 89° ESE 03:36:12 62° SSW
Cosmos 1544 3.7 03:38:05 54° NE 03:38:05 54° NE 03:41:05 10° NNE
OAO 1 4.3 03:38:25 68° SSW 03:38:34 69° SSW 03:44:00 10° ESE
SL-24 R/B 4.3 03:43:41 61° W 03:43:41 61° W 03:47:54 10° NNW
Cosmos 332 Rocket 3.6 03:43:36 69° W 03:43:52 71° WNW 03:48:42 10° NNE
CZ-4B R/B 4.5 03:42:23 10° NNE 03:47:21 35° E 03:51:26 14° SSE
Cosmos 1733 4.1 03:48:32 37° SE 03:49:22 44° E 03:53:00 10° NNE
UNKNOWN OBJECT B 2.6 03:49:27 10° N 03:53:12 79° NW 03:53:12 79° NW
UNK 3.7 03:52:50 60° SW 03:53:23 66° W 03:58:02 10° NNW
Okean O Rocket 2.4 03:50:35 10° NNE 03:54:51 48° E 03:56:55 27° SSE
Cosmos 2227 4.1 03:52:11 10° NNW 03:57:55 69° WSW 04:01:58 20° S
Cosmos 1805 4.5 03:58:53 29° NW 03:58:53 29° NW 04:01:35 10° NNW
Cosmos 2279 Rocket 3.9 03:55:03 31° S 03:58:14 88° W 04:04:31 10° N
In-Cosmos 22 4.2 03:54:32 10° NNW 03:59:40 54° W 04:00:51 44° SW
EO 1 Del DPAF 3.1 03:59:47 68° W 03:59:47 68° W 04:03:37 10° NNW
Cosmos 1538 Rocket 4.2 03:57:49 34° S 04:00:07 71° ESE 04:05:26 10° NNE
Cosmos 371 Rocket 3.2 04:00:57 51° SW 04:02:02 70° WNW 04:06:51 10° NNE
IRS-1D 4.1 03:58:58 10° N 04:03:31 36° WNW 04:04:11 35° W
Resurs 1-4 Rocket 2.5 03:58:47 10° N 04:03:48 46° WNW 04:05:01 39° WSW
Cosmos 1461 2.6 04:00:21 10° NNW 04:04:25 83° WSW 04:06:56 21° SSE
CZ-2D R/B 3.5 04:02:58 10° N 04:07:22 77° WNW 04:08:45 44° SSW
CZ-4B R/B 3.6 04:10:36 10° NNE 04:14:16 46° E 04:16:30 20° SSE
Cosmos 1980 Rocket 3.7 04:13:01 18° WNW 04:14:26 20° WNW 04:18:29 10° NNW
Cosmos 2360 Rocket 2.8 04:10:30 17° S 04:14:39 52° ESE 04:20:06 10° NNE
Cosmos 1842 Rocket 4.0 04:15:15 39° WSW 04:16:07 44° W 04:20:25 10° N
Cosmos 1953 4.1 04:16:53 18° WNW 04:16:53 18° WNW 04:19:09 10° NNW
OTV 4 3.1 04:19:10 11° SSE 04:19:15 11° SE 04:20:04 10° SE
Cosmos 1674 2.5 04:16:12 10° NNW 04:19:56 70° W 04:21:25 34° S
Cosmos 372 Rocket 3.9 04:17:09 10° NNW 04:22:11 62° WSW 04:27:11 10° S
MTI 4.1 04:24:39 43° W 04:24:39 43° W 04:27:47 10° NNW
Cosmos 2322 Rocket 2.8 04:25:36 27° WSW 04:27:58 39° WNW 04:33:12 10° N
Delta 128 4.1 04:27:30 31° SW 04:28:52 40° S 04:33:12 10° ESE
Cosmos 2151 2.9 04:28:12 10° N 04:32:32 89° W 04:36:49 10° S
SL-16 R/B 3.3 04:30:27 24° SW 04:32:47 30° W 04:38:06 10° NW
CZ-4B DEB 4.2 04:28:31 10° NNE 04:34:05 90° SSE 04:39:13 12° SSW
Cosmos 967 Rocket 4.4 04:28:25 10° NNW 04:34:48 85° WSW 04:41:04 10° SSE
Cosmos 1655 Rocket 4.5 04:33:06 10° NNW 04:39:02 42° W 04:44:18 13° SSW
Meteor 2-1 Rocket 4.3 04:37:13 10° S 04:42:52 82° E 04:48:26 10° N
CZ-3 Stage 3 3.9 04:06:46 10° W 04:42:53 66° SSW 04:48:43 10° ESE
Meteor 2-20 4.4 04:39:04 10° N 04:45:09 73° W 04:51:13 10° S
Okean-O 3.2 04:41:20 10° NNE 04:45:43 57° E 04:50:04 10° S
GPS 2-04 Rocket1 3.1 04:44:14 20° W 04:46:36 42° SSW 04:50:15 10° SE
Lacrosse 4 Rocket 4.3 04:49:44 10° SE 04:51:17 12° ESE 04:52:50 10° E
Cosmos 2219 Rocket 4.3 04:49:47 10° SSE 04:54:08 24° E 04:58:28 10° NE
Cosmos 1666 Rocket 4.0 04:51:49 10° N 04:56:09 63° E 05:00:25 10° SSE
DELTA 2 R/B (1) 4.0 04:53:35 12° W 04:58:39 57° NNW 05:04:10 10° ENE
Cosmos 304 Rocket 3.8 04:57:44 11° SSW 05:02:19 63° WNW 05:07:06 10° N
Cosmos 2112 Rocket 4.1 04:57:53 10° S 05:03:03 78° ESE 05:08:17 10° NNE
RESURS DK-1 3.8 05:00:44 10° WNW 05:03:29 17° WSW 05:05:42 12° SW
SL-14 R/B 3.1 04:59:57 10° N 05:03:50 81° W 05:07:40 10° S
SL-16 R/B 3.7 05:00:26 12° WSW 05:03:58 21° WNW 05:08:13 10° N
Feng Yun 1-1 Rocket 4.3 04:58:27 10° NNE 05:04:01 81° ESE 05:09:27 10° S
MOZ.5/SAFIR/RUBIN 5/SL-8 4.3 04:59:54 10° SSW 05:04:17 38° W 05:08:39 10° NNW
Cosmos 2058 3.1 05:02:57 10° NNW 05:07:04 53° W 05:11:09 10° S
ADEOS II 2.2 05:02:25 10° NNE 05:07:42 80° ESE 05:12:56 10° S
Cosmos 2221 3.4 05:07:46 11° SW 05:11:21 30° WNW 05:15:10 10° NNW
Cosmos 2263 Rocket 2.2 05:09:09 10° NNW 05:14:36 58° WSW 05:20:01 10° S
Hubble Space Telescope 2.6 05:13:52 10° SSW 05:16:51 19° SSE 05:19:51 10° ESE
Lacrosse 5 4.5 05:13:08 10° NNW 05:17:12 23° NE 05:21:14 10° E
COSMOS 2428 2.8 05:11:42 10° SSW 05:17:21 85° ESE 05:23:03 10° NNE
Cosmos 2084 3.4 05:18:31 10° NNW 05:22:41 82° WSW 05:27:06 10° SSE
GEOS 3 Rocket 4.3 05:18:18 10° S 05:22:53 31° WSW 05:27:27 10° NW
Cosmos 2322 4.4 05:20:15 10° SW 05:25:32 38° WNW 05:30:51 10° N
Cosmos 1633 Rocket 3.0 05:21:19 10° NNW 05:25:42 70° W 05:30:04 10° S
Cosmos 2333 4.4 05:20:22 10° SSW 05:25:59 80° ESE 05:31:41 10° NNE
Cosmos 2228 Rocket 3.2 05:23:00 10° SSW 05:27:25 61° W 05:31:54 10° N
CZ-4B R/B 4.4 05:23:17 10° NNW 05:27:41 25° WNW 05:32:01 10° WSW
Cosmos 1680 Rocket 3.8 05:23:10 10° SW 05:28:11 49° WNW 05:33:17 10° N
Cosmos 1626 3.2 05:26:38 10° N 05:30:17 51° E 05:33:55 10° SSE
Cosmos 1908 3.9 05:26:51 10° S 05:30:41 61° E 05:34:34 10° NNE
